Regional Weather Roundup
Issued by NWS

Home | Current Version | Previous Version | Text Only | Print | Product List | Glossary On
Versions: 1 2 3 4 5 6 7 8 9 10 11 12 13 14 15 16 17 18 19 20 21 22 23 24 25 26 27 28 29 30 31 32 33 34 35 36 37 38 39 40 41 42 43 44 45 46 47 48 49 50
000
ASUS44 KJAN 272203
RWRMS

MISSISSIPPI HOURLY WEATHER ROUNDUP
NATIONAL WEATHER SERVICE JACKSON MS
500 PM CDT FRI MAR 27 2015

NOTE: "FAIR: INDICATES FEW OR NO CLOUDS BELOW 12,000 FEET WITH NO
SIGNIFICANT WEATHER AND/OR OBSTRUCTIONS TO VISIBILITY.

MSZ001>002-007>008-010>013-018>021-025>028-034>036-272300-
NORTHWEST MISSISSIPPI

CITY           SKY/WX    TMP DP  RH WIND       PRES   REMARKS
CLARKSDALE     PTSUNNY   46  41  81 N9        30.14S
CLEVELAND      CLOUDY    52  42  68 N17       30.12R
GREENWOOD      LGT RAIN  52  36  54 NW10      30.11R
GREENVILLE     MOSUNNY   55  39  54 N17       30.10R
OLIVE BRANCH   PTSUNNY   45  34  65 N14G22    30.09S
OXFORD         FAIR      41  37  87 W13       30.11R
TUNICA         PTCLDY    46  41  81 NW8       30.12F
$$

MSZ003>006-009-014>017-022>024-029>033-037>039-272300-
NORTHEAST MISSISSIPPI

CITY           SKY/WX    TMP DP  RH WIND       PRES   REMARKS
COLUMBUS AFB   MOSUNNY   53  33  46 NW16G22   30.03S
CORINTH        MOCLDY    45  37  76 NW8       30.05R
GOLDN TRIANGLE PTSUNNY   54  34  47 NW12      30.03S
STARKVILLE     MOCLDY    52  34  50 NW7G16    30.05S
TUPELO         LGT RAIN  45  37  73 N5        30.06R
$$

MSZ040-058-272300-
CENTRAL MISSISSIPPI

CITY           SKY/WX    TMP DP  RH WIND       PRES   REMARKS
JACKSON INTL   PTSUNNY   61  35  37 N12G20    30.05S
JACKSON HAWKNS CLOUDY    58  36  43 NW10      30.06S
MERIDIAN KEY   CLOUDY    59  32  36 NW13      30.02R
MERIDIAN NAS   PTSUNNY   58  32  37 NW17G23   30.02R
RAYMOND        MOCLDY    61  55  82 N9G17     30.05S
VICKSBURG      MOSUNNY   60  40  47 NE13      30.06S
$$

MSZ059>079-272300-
SOUTH MISSISSIPPI

CITY           SKY/WX    TMP DP  RH WIND       PRES   REMARKS
BROOKHAVEN     FAIR      63  41  45 NW13G18   30.04S
HATTIESBURG    MOSUNNY   65  33  30 NW18G30   30.01R
MCCOMB         SUNNY     66  37  34 NW14      30.01S
NATCHEZ        SUNNY     66  41  39 N12       30.02S
PINE BELT      MOSUNNY   64  30  27 NW17G23   30.02R
$$

MSZ080>082-272300-
COASTAL MISSISSIPPI

CITY           SKY/WX    TMP DP  RH WIND       PRES   REMARKS
BAY ST LOUIS   SUNNY     70  25  18 N14       29.99S
BILOXI         SUNNY     69  36  29 NW15G25   29.97S
PASCAGOULA     SUNNY     69  32  25 NW8G18    29.96S
GULFPORT       SUNNY     69  34  27 NW13      29.97S
$$



USA.gov is the U.S. government's official web portal to all federal, state and local government web resources and services.